Location: Morisset
(33.1080°S, 151.4871°E)
Time: 09:05:22
(UTC+00:00)

FENGYUN 3A - Pass Details

Date: 29 October 2020
Orbit: 824 x 836 km, 98.4° (Epoch: 27 November)

Event Time Altitude Azimuth Distance (km) Brightness Sun altitude
Rises 17:59:01 0° 4° (N) 3,364 6.6 -12.1°
Reaches altitude 10° 18:01:24 10° 1° (N) 2,436 5.9 -11.6°
Maximum altitude 18:06:43 60° 281° (W) 955 3.7 -10.6°
Drops below altitude 10° 18:12:07 10° 201° (SSW) 2,459 6.2 -9.6°
Sets 18:14:31 0° 197° (SSW) 3,398 6.9 -9.1°
